Home   Weather   Cape Town   Past weeks

Flag for South Africa Past Weather in Cape Town, South Africa — Yesterday and Last 2 Weeks

Now
57 °F

Clear.


Feels Like: 56 °F
Forecast: 59 / 65 °F
Wind: 7 mph from South

Location: Cape Town International Airport

Current Time: Sep 25, 2016 at 4:14:26 AM

Latest Report: Sep 25, 2016 at 3:00 AM


Visibility: 10 mi

Pressure: 30.09 "Hg

Humidity: 77%

Dew Point: 50 °F

Location of Cape TownLocation

Past Weather in Cape Town — Graph

°F

Cape Town Temperature Yesterday

Maximum temperature yesterday: 66 °F (at 4:00 PM)
Minimum temperature yesterday: 46 °F (at 5:00 AM)
Average temperature yesterday: 58 °F

High & Low Weather Summary for the Past Weeks

 TemperatureHumidityPressure
High79 °F (Sep 19, 1:00 PM)94% (Sep 12, 6:00 AM)30.48 "Hg (Sep 12, 6:00 AM)
Low39 °F (Sep 18, 4:00 AM)28% (Sep 19, 1:00 PM)29.74 "Hg (Sep 15, 5:00 PM)
Average59 °F68%30.14 "Hg
* Reported Sep 10 3:00 AM — Sep 25 3:00 AM, Cape Town, Weather by CustomWeather, © 2016

Note: Actual official high and low records may vary slightly from our data, if they occured in-between our weather recording intervals... More about our weather records

Advertising

Cape Town Weather History for the Previous 24 Hours

Scroll right to see more
 ConditionsComfort  
Time TempWeatherWind HumidityBarometerVisibility
3:00 AM
Sun, Sep 25
57 °FClear.7 mph77%30.09 "Hg10 mi
2:00 AM55 °FClear.9 mph82%30.12 "Hg10 mi
1:00 AM57 °FClear.10 mph82%30.15 "Hg10 mi
12:00 AM57 °FClear.9 mph82%30.15 "Hg10 mi
11:00 PM
Sat, Sep 24
57 °FPassing clouds.9 mph77%30.18 "HgN/A
10:00 PM59 °FPassing clouds.13 mph72%30.18 "HgN/A
9:00 PM59 °FPassing clouds.8 mph77%30.18 "HgN/A
8:00 PM59 °FPassing clouds.8 mph77%30.18 "HgN/A
7:00 PM61 °FPassing clouds.9 mph77%30.18 "HgN/A
6:00 PM63 °FPartly sunny.12 mph73%30.18 "HgN/A
5:00 PM64 °FBroken clouds.10 mph73%30.15 "HgN/A
4:00 PM66 °FPartly sunny.7 mph64%30.18 "HgN/A
3:00 PM64 °FPartly sunny.9 mph68%30.18 "HgN/A
2:00 PM63 °FPartly sunny.10 mph68%30.18 "HgN/A
1:00 PM64 °FPartly sunny.7 mph64%30.18 "HgN/A
12:00 PM63 °FPartly sunny.8 mph64%30.21 "HgN/A
11:00 AM63 °FPartly sunny.6 mph64%30.21 "HgN/A
10:00 AM61 °FPartly sunny.6 mph63%30.21 "HgN/A
9:00 AM57 °FPartly sunny.7 mph67%30.24 "HgN/A
8:00 AM54 °FPartly sunny.6 mph77%30.21 "HgN/A
7:00 AM50 °FPartly sunny.7 mph82%30.21 "HgN/A
6:00 AM48 °FPartly cloudy.5 mph82%30.21 "HgN/A
5:00 AM46 °FClear.3 mph82%30.21 "Hg10 mi
4:00 AM48 °FClear.No wind76%30.21 "Hg10 mi
Weather by CustomWeather, © 2016

See weather overviewHow to use our weather pages